Location: Dos Palmas
(32.4468°N, 116.8732°W)
Time: 01:23:53
(UTC+00:00)

Cosmos 1459 Rocket - Pass Details

Date: 20 June 2021
Orbit: 937 x 1000 km, 83.0° (Epoch: 27 July)

Event Time Altitude Azimuth Distance (km) Brightness Sun altitude
Rises 05:12:14 0° 352° (N) 3,600 7.9 -22.7°
Reaches altitude 10° 05:14:43 10° 352° (N) 2,653 7.1 -23.1°
Maximum altitude 05:20:46 82° 266° (W) 954 3.9 -23.8°
Enters shadow 05:22:47 45° 185° (S) 1,267 4.2 -24.1°
